Weather in Nesmeyanovka

Russia / Samara Oblast     52°36′39″N   51°06′03″E
temp.,
°C
wind,
m/s
gust,
m/s
humid.,
%
clouds,
%
prec.,
mm/h
press.,
hPa
HPBL,
m
28 september, tue
tue2801:00+4ne61064100 0.0 1015560
04:00+4ne697390 0.0 1016792
07:00+3nne6108045 0.0 1018644
10:00+6ne796399 0.0 10191164
13:00+7ne6855100 0.0 10201528
16:00+8nne5953100 0.0 10211568
19:00+8ne584395 0.0 1022412
22:00+5nne51055100 0.0 1024289
29 september, wed
wed2901:00+5nne51159100 0.0 1024348
04:00+3nne4967100 0.0 1025270
07:00+3nne497292 0.0 1027301
10:00+7ne67535 0.0 1027918
13:00+9nne564070 0.0 10271742
16:00+10nne673684 0.0 10261985
19:00+6n47475 0.0 1027123
22:00+4nne48555 0.0 1028153
30 september, thu
thu3001:00+3nne35595 0.0 102885
04:00+2nne35645 0.0 102968
07:00+1nne34685 0.0 103074
10:00+7nne34470 0.0 1030502
13:00+10n33375 0.0 10301561
16:00+10nnw343641 0.0 10291761
19:00+7nnw335388 0.0 103034
22:00+7nnw2454100 0.0 103096
1 october, fri
fri101:00+7wnw3455100 0.0 103195
04:00+7wnw3672100 0.0 1031180
07:00+7w4870100 0.0 1031376
10:00+8w4771100 0.0 1031404
13:00+9w4571100 0.0 1032397
16:00+10w4569100 0.0 1031490
19:00+9w247598 0.0 103292
22:00+9w2376100 0.0 103278
2 october, sat
sat201:00+9w2377100 0.0 103286
04:00+9wsw3577100 0.0 1032114
07:00+9wsw3477100 0.0 1032111
10:00+12wnw236411 0.0 1032419
13:00+16wnw344873 0.0 10311641
16:00+16nw334588 0.0 10311629
19:00+13n345576 0.0 103169
22:00+10n33675 0.0 103244